User: anonymous   Login
Location: Cul de Sac
(18.0387°N, 63.0654°W)
Time: 06:32:08
(UTC+00:00)
Language:

Cosmos 1315 Rocket - Orbit

View from above orbital plane
View from above orbital plane
View from above satellite
View from above satellite

Ground track
Ground track

The orbit data is extracted from the following two-line orbital elements,

1 12904U 81103B   21015.54015566 -.00000299  00000-0 -22029-4 0  9991
2 12904  81.1754 220.5385 0029369  78.8705 281.5818 15.05920967689474
Epoch (UTC): 15 January 2021 12:57:49
Eccentricity: 0.0029369
inclination: 81.1754°
perigee height: 528 km
apogee height: 569 km
right ascension of ascending node: 220.5385°
argument of perigee: 78.8705°
revolutions per day: 15.05920967
mean anomaly at epoch: 281.5818°
orbit number at epoch: 68947

The dashed part of the orbit path shows where the satellite is in the earth's shadow,  

DLR